Location: Newark
(42.4678°N, 122.8017°W)
Time: 14:26:44
(UTC+00:00)

ISS - Visible Passes

Search period start: 23 September 2020 00:00
Search period end: 03 October 2020 00:00
Orbit: 419 x 420 km, 51.6° (Epoch: 23 September)

Date Brightness Start Highest point End Pass type
(mag) Time Alt. Az. Time Alt. Az. Time Alt. Az.
23 Sep -1.8 03:25:23 10° WNW 03:28:15 25° NNW 03:30:47 12° NE visible
23 Sep -0.2 05:03:35 10° NW 05:03:45 11° NW 05:03:45 11° NW visible
24 Sep -2.2 02:37:38 10° W 02:40:42 32° NNW 02:43:47 10° NE visible
24 Sep -1.3 04:15:56 10° NW 04:18:11 17° N 04:18:11 17° N visible
25 Sep -1.4 03:28:12 10° NW 03:30:39 18° N 03:32:35 12° NNE visible
26 Sep -1.6 02:40:23 10° WNW 02:43:01 21° NNW 02:45:39 10° NE visible
26 Sep -1.2 04:18:17 10° NW 04:19:54 17° NNW 04:19:54 17° NNW visible
27 Sep -1.5 03:30:44 10° NW 03:33:04 17° N 03:34:14 15° NNE visible
28 Sep -1.4 02:43:04 10° NW 02:45:24 17° N 02:47:43 10° NE visible
28 Sep -1.1 04:20:12 10° NW 04:21:30 18° NNW 04:21:30 18° NNW visible
29 Sep -1.9 03:32:48 10° NW 03:35:25 20° NNE 03:35:49 20° NNE visible
30 Sep -1.6 02:45:19 10° NW 02:47:45 18° N 02:50:09 10° NE visible
30 Sep -1.1 04:21:56 10° NW 04:23:07 19° NW 04:23:07 19° NW visible
01 Oct -2.5 03:34:32 10° NW 03:37:28 31° NNE 03:37:28 31° NNE visible
02 Oct -2.2 02:47:09 10° NW 02:49:59 24° NNE 02:51:51 16° ENE visible
02 Oct -1.0 04:23:43 10° WNW 04:24:49 19° WNW 04:24:49 19° WNW visible
